Regional Weather Roundup
Issued by NWS Cleveland, OH

Home | Current Version | Previous Version | Graphics & Text | Print | Product List | Glossary On
Versions: 1 2 3 4 5 6 7 8 9 10 11 12 13 14 15 16 17 18 19 20 21 22 23 24 25 26 27 28 29 30 31 32 33 34 35 36 37 38 39 40 41 42 43 44 45 46 47 48 49 50
000
ASUS41 KCLE 261912
RWRCLE
OHIO REGIONAL WEATHER ROUNDUP
NATIONAL WEATHER SERVICE WILMINGTON, OH
300 PM EDT WED APR 26 2017

NOTE: "FAIR" INDICATES FEW OR NO CLOUDS BELOW 12,000 FEET WITH NO
SIGNIFICANT WEATHER AND/OR OBSTRUCTIONS TO VISIBILITY.

OHZ001>008-015>018-024>027-034-035-043-044-262000-
   NORTHWEST OHIO

CITY           SKY/WX    TMP DP  RH WIND       PRES   REMARKS
DEFIANCE       FAIR      80  54  40 S21G30    29.54F
FINDLAY        FAIR      85  51  31 S21G35    29.56F
TOLEDO EXPRESS FAIR      81  53  37 S16G28    29.55F
TOLEDO EXEC    FAIR      83  54  36 S17G30    29.56F
LIMA           FAIR      81  54  39 S21G30    29.57F
$$

OHZ009>014-019>023-028>033-038-089-262000-
   NORTHEAST OHIO

CITY           SKY/WX    TMP DP  RH WIND       PRES   REMARKS
CLE-HOPKINS    PTSUNNY   79  56  45 S15G25    29.66F
CLE-LAKEFRONT  FAIR      80  57  45 S16G24    29.63F
CUY CO. ARPT   PTSUNNY   77  59  53 S14       29.67F
LORAIN-ELYRIA  FAIR      78  56  46 S17       29.64F
ASHTABULA      FAIR      75  57  53 S10G20    29.70F
AKRON-CANTON   FAIR      76  57  51 S15       29.70F
WOOSTER        FAIR      76  58  53 S15G23    29.68F
MANSFIELD      FAIR      80  53  39 SE18G26   29.65F
YOUNGSTOWN     CLOUDY    75  55  49 S8        29.71S
$$

OHZ042-051>053-060>062-070>072-077>081-262000-
  SOUTHWEST OHIO

CITY           SKY/WX    TMP DP  RH WIND       PRES   REMARKS
CINC-COVINGTON FAIR      79  62  56 S18G25    29.63F
CINC-LUNKEN    FAIR      80  63  55 S14G25    29.62F
HAMILTON       FAIR      83  60  45 S9G20     29.62F
DAYTON         FAIR      79  57  46 S17G26    29.61F
WRIGHT-PAT AFB FAIR      81  55  40 S17       29.61F
DAYTON GENERAL FAIR      80  59  48 S16       29.61F
WILMINGTON     FAIR      78  58  49 S16G25    29.64F
$$

OHZ036-037-039>041-045>050-054>059-063>069-073>076-082>088-262000-
  CENTRAL AND SOUTHEAST OHIO

CITY           SKY/WX    TMP DP  RH WIND       PRES   REMARKS
COLUMBUS       PTSUNNY   82  53  36 S16G23    29.66F
OSU AIRPORT    FAIR      81  56  42 S18G25    29.64F
BOLTON FIELD   SUNNY     81  55  41 S14G28    29.65F
RICKENBACK AFB FAIR      81  53  37 S20G26    29.65F
NEWARK         FAIR      81  53  37 SE10      29.66F
MARION         FAIR      81  51  35 S22G29    29.62F
LANCASTER      FAIR      83  54  36 S13       29.67F
ZANESVILLE     FAIR      80  54  40 S13       29.69F
NEW PHILLY     FAIR      79  57  46 S10       29.69F
$$




USA.gov is the U.S. government's official web portal to all federal, state and local government web resources and services.